Regional Weather Roundup
Issued by NWS Sterling, VA

Home | Current Version | Previous Version | Text Only | Print | Product List | Glossary On
Versions: 1 2 3 4 5 6 7 8 9 10 11 12 13 14 15 16 17 18 19 20 21 22 23 24 25 26 27 28 29 30 31 32 33 34 35 36 37 38 39 40 41 42 43 44 45 46 47 48 49 50
000
ASUS41 KLWX 100810
RWRLWX

REGIONAL WEATHER ROUNDUP
NATIONAL WEATHER SERVICE BALTIMORE MD/WASHINGTON DC
400 AM EDT THU JUL 10 2014

Note: "FAIR" indicates few or no clouds below 12,000 feet
with no significant weather and/or obstructions to visibility.
 TC=TEMPERATURE CELSIUS

 * =Non NWS site. Station does not report precipitation (e.g. rain,
    snow, etc.), thunder, or fog.

DCZ001-MDZ009-015-VAZ040>042-051-053>054-100900-
WASHINGTON METRO
  /KDAA//-FT BELVOIR

CITY           SKY/WX    TMP DP  RH WIND       PRES   REMARKS
WASHINGTON NAT CLOUDY    72  66  83 SW5       29.99S
DULLES         MOCLDY    68  67  96 CALM      29.99R
ANDREWS AFB    CLOUDY    70  69  97 SW7       29.99S
QUANTICO       CLOUDY    74  69  85 SW5       30.00R
COLLEGE PARK*  CLOUDY    70  70 100 CALM      29.98S
LEESBURG*      MOCLDY    68  68 100 NW3       30.00S
MANASSAS*      MOCLDY    70  70 100 CALM      29.99S
GAITHERSBURG*  MOCLDY    66  64  94 CALM      30.03S

$$

MDZ006>007-011-014-100900-
BALTIMORE METRO

CITY           SKY/WX    TMP DP  RH WIND       PRES   REMARKS
BWI AIRPORT    CLOUDY    70  67  90 CALM      29.98S
MD SCIENCE CTR   N/A     75  67  76 MISG      29.98S
MARTIN STATE   CLOUDY    72  70  94 CALM      29.99S
ANNAPOLIS      CLOUDY    71  68  90 CALM      29.97F

$$

MDZ012-015-019>023-100900-
MARYLAND EASTERN SHORE

CITY           SKY/WX    TMP DP  RH WIND       PRES   REMARKS
OCEAN CITY     CLOUDY    74  71  91 W7        29.99F
SALISBURY      CLOUDY    75  71  87 S5        30.00S
BAY BRIDGE AP*   N/A     73  72  94 SW5       29.98S
CAMBRIDGE*     CLOUDY    77  72  83 S5        29.98S
EASTON*        CLOUDY    75  75 100 CALM      30.02R

$$

MDZ017>025-100900-
SOUTHERN MARYLAND

CITY           SKY/WX    TMP DP  RH WIND       PRES   REMARKS
PATUXENT RIVER CLOUDY    74  70  87 SW9       29.99R
ST INIGOES     CLOUDY    75  68  78 S6        29.99R
LEONARDTOWN*   CLOUDY    72  68  88 SW8       30.00F

$$

MDZ003>005-100900-
NORTH CENTRAL MARYLAND

CITY           SKY/WX    TMP DP  RH WIND       PRES   REMARKS
FREDERICK*     MOCLDY    66  66 100 CALM      30.03R FOG
HAGERSTOWN APT PTCLDY    66  64  93 CALM      30.01R
WESTMINSTER*   MOCLDY    66  64  94 CALM      30.02R FOG

$$

MDZ501>502-100900-
WESTERN MARYLAND

CITY           SKY/WX    TMP DP  RH WIND       PRES   REMARKS
OAKLAND*       CLEAR     61  59  94 W5        30.11S
CUMBERLAND*    CLEAR     63  57  82 CALM      30.07R

$$

VAZ025>031-100900-
SHENANDOAH VALLEY

CITY           SKY/WX    TMP DP  RH WIND       PRES   REMARKS
WINCHESTER*    PTCLDY    64  63  94 CALM      30.01S FOG
STAUNTON*      MOCLDY    66  63  92 CALM      30.05S FOG

$$

WVZ021-048>050-054>055-100900-
EASTERN WEST VIRGINIA PANHANDLE

CITY           SKY/WX    TMP DP  RH WIND       PRES   REMARKS
MARTINSBURG    PTCLDY    66  63  90 CALM      30.01S FOG
PETERSBURG*    CLEAR     60  57  88 CALM      30.05S FOG

$$

VAZ036>039-050-100900-
CENTRAL FOOTHILLS

CITY           SKY/WX    TMP DP  RH WIND       PRES   REMARKS
CHARLOTTESVILL CLOUDY    69  68  96 S3        30.00S FOG
ORANGE*        CLOUDY    68  66  94 CALM      30.01S

$$

VAZ055>057-100900-
NORTH AND CENTRAL PIEDMONT

CITY           SKY/WX    TMP DP  RH WIND       PRES   REMARKS
FREDERICKSBRG* MOCLDY    74  70  87 CALM      29.99S
STAFFORD*      MOCLDY    69  69 100 CALM      30.03S

$$

NCZ024-NYZ072-PAZ021-071-VAZ022-071-100900-
OTHER REGIONAL OBSERVATIONS

CITY           SKY/WX    TMP DP  RH WIND       PRES   REMARKS
NEW YORK CITY  CLOUDY    74  60  61 CALM      30.02R
PHILADELPHIA   CLOUDY    76  68  76 SW3       29.98F
PITTSBURGH     PTCLDY    64  62  93 N6        30.05S
ROANOKE        CLOUDY    69  66  90 CALM      30.06R
RICHMOND       CLOUDY    73  70  90 S5        30.00F
RALEIGH        CLOUDY    74  67  78 W3        30.01S

$$

ANZ530>537-100900-
MARINE OBSERVATIONS

STATION/POSITION TIME  TEMP    WIND        PRES
                       AIR SEA DIR/SP/G
                 (UTC) (F)     (DEG/KT/KT) (MB)
THOMAS PT LIGHT  0800   73 78  220/  6/  7 1015.9R
BALT KEY BRIDGE  0800   73     240/  4/  5 1014.8F
COVE POINT       0800   74     220/ 14/ 16 1015.2R
LEWISETTA        0800   75 80  220/  8/  9 1015.5F
SOLOMONS ISLAND  0800      80                N/A
PINEY POINT      0800          250/  8/ 12   N/A

$$



USA.gov is the U.S. government's official web portal to all federal, state and local government web resources and services.